Regional Weather Roundup
Issued by NWS Newport/Morehead, NC

Current Version | Previous Version | Graphics & Text | Print | Product List | Glossary Off
Versions: 1 2 3 4 5 6 7 8 9 10 11 12 13 14 15 16 17 18 19 20 21 22 23 24 25 26 27 28 29 30 31 32 33 34 35 36 37 38 39 40 41 42 43 44 45 46 47 48 49 50

000
ASUS42 KMHX 061912
RWRMHX
WEATHER ROUNDUP FOR EASTERN NORTH CAROLINA
NATIONAL WEATHER SERVICE NEWPORT/MOREHEAD CITY NC
300 PM EDT WED MAY 06 2015

NOTE: "FAIR" INDICATES FEW OR NO CLOUDS BELOW 12,000 FEET
WITH NO SIGNIFICANT WEATHER AND/OR OBSTRUCTIONS TO VISIBILITY

NCZ015>017-031-032-045>047-102-103-062000-
NORTH COAST

CITY           SKY/WX    TMP DP  RH WIND       PRES   REMARKS
EDENTON        CLOUDY    77  58  51 E7        30.19F
ELIZABETH CITY CLOUDY    73  56  54 SE9       30.20F
KITTY HAWK     CLOUDY    70  56  60 E6        30.20F
MANTEO         CLOUDY    72  58  61 S8        30.21F

$$

NCZ045>047-081-094-103-104-062000-
CENTRAL COAST

CITY           SKY/WX    TMP DP  RH WIND       PRES   REMARKS
FRISCO         CLOUDY    71  58  63 SE8       30.21F
SWANQUARTER      N/A     73 N/A N/A SE12      30.15F

$$

NCZ095-097-098-100-101-062000-
SOUTHERN COAST

CITY           SKY/WX    TMP DP  RH WIND       PRES   REMARKS
BEAUFORT       CLOUDY    73  59  61 E9        30.18F
CEDAR ISLAND     N/A     72 N/A N/A E9        30.24F
JACKSONVILLE   CLOUDY    75  57  53 SE14      30.17F
PINEY ISLAND   CLOUDY   N/A N/A N/A E12       30.19F
WILMINGTON     CLOUDY    73  56  54 E13G22    30.17F


$$

NCZ011>013-027>030-043-044-078>080-089-090>093-098-062000-
COASTAL PLAIN

CITY           SKY/WX    TMP DP  RH WIND       PRES   REMARKS
AHOSKIE        PTSUNNY   78  54  43 SE6       30.18F
CLINTON        CLOUDY    79  53  39 E8        30.17F
ELIZABETHTOWN  CLOUDY    78  49  35 E6        30.16F
GOLDSBORO      CLOUDY    77  54  45 E8        30.16F
GREENVILLE     CLOUDY    79  55  44 SE8       30.19F
HAVELOCK       CLOUDY    73  59  61 NE12      30.19F
KENANSVILLE    CLOUDY    77  47  34 E6        30.18F
KINSTON        CLOUDY    79  52  38 E7        30.18F
NEW BERN       CLOUDY    75  54  47 SE10      30.20F
RICHLANDS      CLOUDY    75  54  46 E12G17    30.18F
ROCKY MOUNT    CLOUDY    79  55  43 E5        30.18F
WASHINGTON     CLOUDY    74  55  51 SE12      30.19F
WHITEVILLE     PTSUNNY   78  53  41 E8        30.15F

$$

AMZ130-135-150-152-154-156-158-170-250-252-270-ANZ085-086-088-633-658-670-062000-
MARINE OBSERVATIONS

STATION/POSITION TIME  TEMP    WIND        PRES    WAVE   SWELL
                       AIR SEA DIR/SP/G            HT/PER HT/PER
                 (UTC) (F)     (DEG/KT/KT) (MB)    (FT/S) (FT/S)
CHESAPEAKE LIGHT 1900   65     160/ 12/ 12 1023.3
64 E VA BEACH    1850   66 62  160/  4/  4 1022.9    2/ 8   2/ 8
DUCK             1812   66 52   80/  2/  3 1022.2
2 E DUCK         1811      60                N/A     2/11
OREGON INLET     1800      69   60/  6/  7 1023.4
13E OREGON INLT  1900      64                N/A     2/11
HATTERAS CG      1812   71 67   90/  6/  8 1022.8
DIAMOND BUOY     1850   71 74  100/ 12/ 14 1022.7    3/ 8   3/ 8
CAPE LOOKOUT     1900   69      70/ 10/ 11 1021.7
BEAUFORT LAB     1812   71 68  110/ 11/ 14 1021.7
27 SE WRIGHTSVLE 1800   68 71   80/ 16/ 19   N/A
5 SE WRIGHTSVLE  1808   70 68   70/ 14/ 17 1021.9
225 S CAPE HAT   1850   67 70   80/ 29/ 37 1016.5    9/ 7   2/11
41 SE CHARLESTON 1850   72 73   30/ 19/ 23 1018.5    8/ 8   3/ 8

$$


USA.gov is the U.S. government's official web portal to all federal, state and local government web resources and services.